RH
90 85 81 81 85 84 80 84 83 86 90 89 86 84 82 82 88 92 93 96 100 100 99 95 94 98 97
82 85 84 81 80 80 86 87 88 88 87 84 91 97 95 93 96 98 98 99 100 100 99 99 99 99 97
90 89 86 82 82 80 80 83 86 89 91 87 96 100 93 97 95 91 90 96 97 99 99 98 97 99 100
89 85 83 79 80 79 84 82 73 78 84 87 92 94 91 92 97 97 95 94 95 95 97 97 94 89 86
70 55 56 45 28 29 24 24 37 23 24 35 44 67 78 82 86 89 91 96 94 95 98 99 93 88 88
10 19 41 26 22 17 17 16 32 44 22 16 17 16 15 14 18 28 40 54 66 77 84 84 75 60 41
12 17 22 19 21 22 23 22 25 27 15 13 25 18 18 14 9 10 10 10 11 13 15 17 18 18 19
11 14 16 16 20 24 23 22 29 54 23 20 37 29 31 36 27 31 29 23 19 16 14 16 20 29 74
13 13 13 13 16 20 25 30 36 71 41 45 44 37 38 40 40 40 40 41 42 43 44 44 64 87 82
14 14 14 14 16 18 20 24 31 65 71 58 46 46 42 50 45 46 46 44 45 46 48 50 51 52 54
16 18 18 19 20 21 25 37 48 53 58 56 53 53 55 50 42 48 47 48 49 49 48 49 51 53 52
18 20 22 24 23 31 41 49 52 53 56 57 56 60 66 66 51 55 52 51 55 55 55 54 54 55 52
17 19 20 22 28 29 32 39 46 50 53 55 57 60 62 64 62 59 58 54 58 60 65 66 64 63 60
17 19 18 18 21 21 22 26 32 38 46 53 57 59 59 60 63 57 58 63 58 62 66 63 62 62 64
18 19 20 20 21 22 23 24 24 26 33 39 39 45 48 48 47 46 50 54 59 67 86 74 63 63 66
20 20 21 22 23 24 25 26 28 32 40 50 56 48 50 51 60 67 72 73 75 81 83 80 68 63 65
24 24 24 25 27 28 30 31 33 37 42 51 61 69 81 79 76 85 79 76 78 80 80 79 79 69 69
Wind_Speed
13 14 16 17 19 19 17 12 10 10 13 13 12 10 7 8 8 8 10 9 12 14 17 19 22 26 22
13 14 15 15 16 15 11 10 10 10 11 13 12 9 8 6 7 9 12 14 17 19 20 20 19 21 23
14 13 13 12 13 12 11 11 10 10 12 12 13 14 14 15 14 14 17 19 19 19 21 24 25 22 23
11 12 12 11 11 10 8 11 11 11 11 12 12 13 14 16 16 16 16 17 19 21 21 21 21 20 20
8 9 10 9 10 11 10 11 11 12 11 12 12 13 14 14 16 16 17 17 18 19 19 18 19 19 19
8 7 10 10 11 11 11 10 5 13 11 10 15 13 15 17 17 17 18 18 19 19 19 19 19 19 20
7 8 9 10 11 10 10 9 10 13 13 8 11 9 12 13 13 15 17 19 20 21 21 21 20 20 19
8 9 9 10 9 10 9 9 7 11 9 6 8 7 8 10 10 9 9 10 11 13 16 16 17 17 16
8 8 9 9 8 9 8 7 5 6 11 7 7 9 10 9 9 8 9 9 9 10 11 12 12 13 15
9 9 8 7 6 6 7 6 6 4 10 10 11 11 6 8 6 6 6 10 10 12 14 15 16 17 18
8 8 8 8 7 7 7 8 9 9 14 14 13 13 9 14 12 11 12 12 12 13 15 16 18 19 20
8 8 9 10 10 10 10 11 13 14 14 16 16 14 15 17 17 15 14 13 14 14 16 17 18 19 21
10 10 11 12 12 13 14 14 14 14 14 14 15 15 16 19 22 23 21 17 16 12 9 11 15 17 20
11 12 12 12 13 13 14 14 15 15 14 13 14 16 17 19 22 24 23 20 20 19 19 20 20 20 21
12 12 12 13 13 13 14 15 16 15 14 14 13 13 16 20 25 23 22 22 20 20 20 23 21 20 20
13 13 13 14 14 14 15 15 16 15 15 15 16 17 18 20 20 19 18 19 20 19 19 23 26 21 20
15 15 15 16 16 16 16 16 17 17 17 17 18 19 20 24 24 21 20 17 22 25 23 23 28 27 25
Wind_Direction
276 280 284 289 296 303 304 301 297 298 296 296 299 307 301 271 278 273 268 260 251 246 252 254 255 249 263
270 273 273 279 287 301 302 293 289 292 288 295 292 298 296 261 263 266 258 255 252 250 247 252 259 260 267
276 275 279 287 291 296 297 297 294 289 287 281 281 278 278 276 275 263 256 253 254 259 262 264 265 260 258
277 286 293 294 293 294 299 298 298 297 290 283 280 276 273 273 273 268 261 258 258 258 258 257 257 259 258
279 298 296 294 299 293 295 296 300 299 291 287 283 279 277 271 267 267 265 264 264 261 259 261 262 259 257
278 280 284 289 290 301 299 301 293 297 296 289 284 283 275 272 273 272 270 267 263 261 259 259 261 262 261
277 277 277 293 296 295 296 299 292 288 303 300 287 296 288 290 281 272 268 265 264 262 262 263 262 261 262
287 286 286 290 294 300 303 306 315 309 317 308 295 310 303 302 302 294 286 277 271 265 262 260 257 253 251
301 294 296 298 296 294 298 307 322 307 310 310 305 314 305 299 296 298 288 283 278 271 262 256 250 247 247
319 314 309 305 297 288 291 295 292 322 296 306 313 325 316 303 302 305 287 293 284 275 270 268 267 263 257
309 307 307 301 295 291 286 285 285 277 284 301 307 314 302 297 298 299 290 283 282 279 272 266 266 267 268
300 294 292 290 291 289 289 286 285 285 287 292 295 300 299 301 304 301 296 298 296 283 274 273 273 270 268
292 288 287 288 289 289 287 284 282 283 284 285 288 290 291 292 295 297 304 305 302 294 295 283 280 276 276
293 292 292 290 288 292 296 295 293 294 291 288 285 286 289 289 291 295 304 302 304 302 299 290 288 286 282
291 289 288 290 292 293 296 297 297 300 300 296 293 286 287 289 291 298 301 297 299 300 296 294 291 286 287
292 290 289 287 289 290 292 293 294 297 297 296 294 298 293 289 292 301 298 299 298 295 292 292 294 300 296
291 289 287 286 286 289 289 290 292 293 293 293 291 293 292 293 300 298 301 301 299 296 298 293 296 298 298